Tracking 18984 objects as of 24-Feb-2018
HD Live streaming from Space Station
objects crossing your sky now

FENGYUN 1C DEB

Track FENGYUN 1C DEB now!
10-day predictions


NORAD ID: 31089
Int'l Code: 1999-025BGK
Perigee: 798.7 km
Apogee: 1,112.0 km
Inclination: 99.0 °
Period: 104.0 minutes
Semi major axis: 7326 km
RCS: 0.0058 m2 (small)
Launch date: May 10, 1999
Source: People's Republic of China (PRC)
Launch site: Taiyaun Space Center, China (TSC)

Note: This is SATELLITE DEBRIS
aabbcc
Your satellite tracking list
Your tracking list is empty




NASA's NSSDC Master Catalog

Two Line Element Set (TLE):
1 31089U 99025BGK 18054.48185365  .00000208  00000-0  18752-3 0  9990
2 31089  99.0042 300.5633 0213776   5.6678 115.1299 13.84429454554472
Source of the keplerian elements: AFSPC